Shelton, WA
on Tuesday, December 18, 2012

Tuesday
Previous Day Next Day
Daily Summary
 ActualAverage (KOLM)Record (KOLM)
Temperature
Mean Temperature °F 38°F  
Max Temperature 34°F 44°F 56°F (2004)
Min Temperature 30°F 32°F 13°F (2005)
Degree Days
Heating Degree Days 33 27  
Month to date heating degree days 475  
Since 1 July heating degree days 1920  
Cooling Degree Days 0 0  
Month to date cooling degree days 0  
Year to date cooling degree days 106  
Moisture
Dew Point 32°F   
Average Humidity 98    
Maximum Humidity 100    
Minimum Humidity 92    
Precipitation
Precipitation 0.23 in 0.21 in 1.11 in (1960)
Month to date precipitation 4.49  
Year to date precipitation 47.03  
Wind
Wind Speed 2 mph   
Max Wind Speed 7 mph   
Max Gust Speed mph   
Visibility 9 miles   
Events Snow   

Key: T is trace of precipitation, MM is missing value
Source: NWS Daily Summary
Time(PST)TemperatureDew PointHumidity Pressure Visibility Wind DirectionWind SpeedGust SpeedPrecipitationEvents Conditions
12:19 AM 33.8°F 32.0°F 93% 29.87 in 8.0 miles Calm Calm - 0.01 in Snow Light Snow
12:34 AM 33.8°F 32.0°F 93% 29.87 in 5.0 miles Calm Calm - 0.04 in Snow Light Snow
12:51 AM 33.8°F 32.0°F 93% 29.86 in 9.0 miles East 3.5 mph - 0.04 in Snow Light Snow
12:53 AM 33.1°F 32.0°F 96% 29.88 in 9.0 miles East 3.5 mph - 0.04 in Snow Light Snow
1:53 AM 32.0°F 32.0°F 100% 29.88 in 8.0 miles SSE 5.8 mph - 0.08 in Snow Light Snow
2:01 AM 32.0°F 32.0°F 100% 29.86 in 6.0 miles SSE 6.9 mph - 0.00 in Snow Light Snow
2:11 AM 32.0°F 32.0°F 100% 29.86 in 9.0 miles SE 4.6 mph - 0.01 in Snow Light Snow
2:27 AM 33.8°F 32.0°F 93% 29.87 in 7.0 miles SE 6.9 mph - 0.01 in Snow Light Snow
2:38 AM 33.8°F 32.0°F 93% 29.87 in 5.0 miles Calm Calm - 0.03 in Snow Light Snow
2:53 AM 33.1°F 32.0°F 96% 29.88 in 6.0 miles South 3.5 mph - 0.05 in Snow Light Snow
3:17 AM 33.8°F 32.0°F 93% 29.86 in 7.0 miles SSE 5.8 mph - 0.02 in Snow Light Snow
3:53 AM 32.0°F 32.0°F 100% 29.87 in 9.0 miles SE 4.6 mph - 0.03 in Snow Light Snow
4:07 AM 32.0°F 32.0°F 100% 29.85 in 9.0 miles SE 3.5 mph - 0.00 in Snow Light Snow
4:45 AM 33.8°F 32.0°F 93% 29.86 in 10.0 miles Calm Calm - 0.00 in   Overcast
4:53 AM 32.0°F 32.0°F 100% 29.88 in 10.0 miles Calm Calm - 0.00 in   Mostly Cloudy
5:02 AM 32.0°F 32.0°F 100% 29.86 in 10.0 miles South 3.5 mph - N/A   Mostly Cloudy
5:17 AM 32.0°F 32.0°F 100% 29.87 in 10.0 miles Calm Calm - N/A   Overcast
5:38 AM 32.0°F 32.0°F 100% 29.87 in 10.0 miles Calm Calm - N/A   Overcast
5:53 AM 32.0°F 32.0°F 100% 29.89 in 10.0 miles Calm Calm - N/A   Overcast
6:27 AM 30.2°F 30.2°F 100% 29.88 in 6.0 miles Calm Calm - N/A   Partly Cloudy
6:53 AM 30.9°F 30.0°F 96% 29.90 in 5.0 miles Calm Calm - N/A   Partly Cloudy
7:19 AM 30.2°F 30.2°F 100% 29.89 in 8.0 miles Calm Calm - N/A   Mostly Cloudy
7:53 AM 30.9°F 30.9°F 100% 29.92 in 9.0 miles Calm Calm - 0.00 in Snow Light Snow
8:22 AM 32.0°F 32.0°F 100% 29.90 in 9.0 miles Calm Calm - 0.01 in Snow Light Snow
8:53 AM 30.0°F 30.0°F 100% 29.93 in 10.0 miles WSW 3.5 mph - 0.01 in   Mostly Cloudy
9:18 AM 30.2°F 30.2°F 100% 29.91 in 10.0 miles Calm Calm - N/A   Mostly Cloudy
9:21 AM 30.2°F 30.2°F 100% 29.91 in 7.0 miles Calm Calm - N/A   Mostly Cloudy
9:53 AM 32.0°F 30.9°F 96% 29.95 in 10.0 miles WSW 5.8 mph - N/A   Mostly Cloudy
10:03 AM 32.0°F 32.0°F 100% 29.93 in 10.0 miles WSW 4.6 mph - N/A   Overcast
10:37 AM 32.0°F 30.2°F 93% 29.94 in 10.0 miles Calm Calm - 0.00 in   Overcast
10:51 AM 32.0°F 32.0°F 100% 29.93 in 10.0 miles Calm Calm - 0.00 in   Overcast
10:53 AM 32.0°F 32.0°F 100% 29.95 in 10.0 miles Calm Calm - 0.00 in   Overcast
11:10 AM 32.0°F 32.0°F 100% 29.94 in 10.0 miles South 3.5 mph - N/A   Overcast
11:17 AM 32.0°F 32.0°F 100% 29.94 in 10.0 miles South 4.6 mph - N/A   Overcast
11:24 AM 32.0°F 32.0°F 100% 29.94 in 9.0 miles SSW 5.8 mph - 0.00 in Snow Light Snow
11:53 AM 33.1°F 33.1°F 100% 29.96 in 9.0 miles South 4.6 mph - 0.00 in   Overcast
12:06 PM 33.8°F 33.8°F 100% 29.94 in 9.0 miles SSE 3.5 mph - 0.01 in Snow Light Snow
12:31 PM 33.8°F 33.8°F 100% 29.94 in 10.0 miles South 3.5 mph - 0.01 in   Overcast
12:53 PM 33.1°F 33.1°F 100% 29.96 in 9.0 miles Calm Calm - 0.01 in Snow Light Snow
1:53 PM 34.0°F 32.0°F 92% 29.95 in 10.0 miles Calm Calm - 0.01 in   Overcast
2:53 PM 34.0°F 33.1°F 96% 29.96 in 10.0 miles SW 6.9 mph - N/A   Mostly Cloudy
3:53 PM 34.0°F 33.1°F 96% 29.97 in 10.0 miles SW 3.5 mph - N/A   Overcast
4:53 PM 33.1°F 33.1°F 100% 29.97 in 10.0 miles SSW 3.5 mph - N/A   Overcast
5:53 PM 34.0°F 34.0°F 100% 29.98 in 10.0 miles Calm Calm - N/A   Overcast
6:21 PM 33.8°F 33.8°F 100% 29.96 in 10.0 miles Calm Calm - N/A   Overcast
6:53 PM 33.1°F 32.0°F 96% 29.98 in 10.0 miles Calm Calm - N/A   Mostly Cloudy
7:02 PM 32.0°F 32.0°F 100% 29.96 in 3.0 miles Calm Calm - N/A   Mostly Cloudy
7:53 PM 32.0°F 32.0°F 100% 29.98 in 10.0 miles Calm Calm - N/A   Overcast
8:15 PM 32.0°F 32.0°F 100% 29.96 in 10.0 miles Calm Calm - N/A   Overcast
8:35 PM 32.0°F 32.0°F 100% 29.95 in 10.0 miles Calm Calm - N/A   Overcast
8:53 PM 32.0°F 32.0°F 100% 29.98 in 10.0 miles Calm Calm - N/A   Mostly Cloudy
9:06 PM 32.0°F 32.0°F 100% 29.95 in 10.0 miles Calm Calm - N/A   Overcast
9:16 PM 32.0°F 32.0°F 100% 29.95 in 6.0 miles Calm Calm - N/A   Overcast
9:20 PM 32.0°F 32.0°F 100% 29.95 in 4.0 miles Calm Calm - N/A   Overcast
9:53 PM 32.0°F 32.0°F 100% 29.97 in 10.0 miles Calm Calm - N/A   Overcast
10:14 PM 32.0°F 32.0°F 100% 29.95 in 7.0 miles Calm Calm - N/A   Overcast
10:53 PM 32.0°F 32.0°F 100% 29.96 in 10.0 miles Calm Calm - N/A   Mostly Cloudy
11:53 PM 33.1°F 32.0°F 96% 29.95 in 10.0 miles SSE 4.6 mph - N/A   Overcast
Moon Phase
Dec. 18 Dec. 20 Dec. 28 Jan. 04 Jan. 11
Sunrise:07:55 AM (PST) Moon Rise:11:15 AM (PST)12/18
Sunset:04:23 PM (PST) Moon Set:11:20 PM (PST)12/18

Copyright © 2014 The Weather Underground, Inc.